Location: Ammerl�gen
(47.2167°N, 9.6000°E)
Time: 19:05:40
(UTC+00:00)

DMSP 5D-2 F13 DEB - Pass Details

Date: 28 October 2021
Orbit: 758 x 780 km, 98.7° (Epoch: 03 December)

Event Time Altitude Azimuth Distance (km) Brightness Sun altitude
Exits shadow 20:25:29 14° 310° (NW) 2,052 ? -42.6°
Drops below altitude 10° 20:26:22 10° 318° (NW) 2,299 ? -42.7°
Sets 20:29:11 0° 334° (NNW) 3,228 ? -43.1°
